COSMOS 2491 DEB, 57553

Orbit data source: Space-Track

COSMOS 2491 DEB, 57553 is space debris in LEO originally from a launch on Wed, 25 Dec 2013 UTC launched from the Plesetsk Missile And Space Complex (PKMTR). Debris objects in space refer to the collection of defunct objects orbiting the Earth. Examples of debris include non-operational satellites, rocket bodies, and fragments generated from explosions, collisions, or faulty payload assembly.

Loading next visibility...
Identifier
57553, 2013-076AQ
Orbit
LEO
Country
Flag of CISCIS
Related business
Manufacturer
TsNIIKhM
Mission
Spacecraft
Bus & Motor
Unknown
Mass
Unknown
Launch date (UTC)
2013-12-25 (12 years ago)
Launch vehicle
Unknown
Launch site
Plesetsk Missile And Space Complex (PKMTR)
Object type
Payload
Rocket body
Debris
Shape & HBR
Unknown shape, 0.1 m
Radar Cross Section
Small (<0.1 m²)

Expand to show TLE details & history
Last TLE update: 2 weeks ago

TLE from 2 weeks ago
0 COSMOS 2491 DEB
1 57553U 13076AQ  26109.93817521  .00000067  00000-0  37100-3 0  9993
2 57553  82.4782 185.0205 0048330  85.9856 274.6751 12.50308616134493
Epoch: 2026-04-19T22:30Z
TLE epoch observation values (Epoch: 2026-04-19T22:30:58.338Z)
Latitude
0.00004°
Longitude
-0.75805°
Altitude
1,463.007 km
Speed
7.132 km/s
True Right ascension
12h 20m 04s
True Declination
0° 00' 00"
Sunlit
Object was in full shadow at epoch
Visualization orbit readout
Latitude
Unknown
Longitude
Unknown
Altitude
Unknown
Speed
Unknown
Apparent Right ascension
Unknown
Apparent Declination
Unknown
Sunlit
N/A
Visualization observer readout
Local Sidereal Time
19:20:20
Azimuth
Unknown
Elevation
Unknown
Doppler factor
Unknown
Orbital elements
Apogee altitude
1,498.43 km
Perigee altitude
1,422.661 km
Semi-major axis
7,838.683 km
Eccentricity
0.00483
Inclination
82.4782°
RAAN
185.0205°
Arg. of periapsis
85.9856°
True anomaly
274.12286°
Mean anomaly
274.6751°
Eccentric anomaly
274.39901°
Mean motion
3.12736 °/min
Orbital period
115.11 mins
BSTAR
0.000371
Loading maneuver chart data...
Computing Atmospheric mass density...
Loading historical data...
Loading historical data...
Loading historical data...
Loading historical data...
Loading historical data...
Loading historical data...
Loading historical data...

Documentation

Showing up to 5 results
|